This is the latest recevied weather packets stored in our database for station/object IZ1UQG-N2. If no packets are shown the sender has not sent any weather packets the latest 10 day(s).
| Time | Temp. | Humidity | Pressure | Rain* | Wind** | Luminosity | Snow |
|---|---|---|---|---|---|---|---|
| 1777570638 | 17.22° C | 57% | 1020.2 hPa | 0 mm | - | 39 W/m² | - |
| 1777570578 | 17.22° C | 57% | 1020.2 hPa | 0 mm | - | 40 W/m² | - |
| 1777570518 | 17.22° C | 56% | 1020.1 hPa | 0 mm | - | 40 W/m² | - |
| 1777570506 | 17.22° C | 56% | 1020.1 hPa | 0 mm | - | 40 W/m² | - |
| 1777570456 | 17.22° C | 56% | 1020.2 hPa | 0 mm | - | 44 W/m² | - |
| 1777570398 | 17.22° C | 56% | 1020.3 hPa | 0 mm | - | 46 W/m² | - |
| 1777570338 | 17.22° C | 56% | 1020.2 hPa | 0 mm | - | 47 W/m² | - |
| 1777570327 | 17.22° C | 56% | 1020.2 hPa | 0 mm | - | 47 W/m² | - |
| 1777570277 | 17.22° C | 55% | 1020.2 hPa | 0 mm | - | 47 W/m² | - |
| 1777570217 | 17.22° C | 55% | 1020.1 hPa | 0 mm | - | 49 W/m² | - |
| 1777570157 | 17.22° C | 55% | 1020.2 hPa | 0 mm | - | 49 W/m² | - |
| 1777570147 | 17.22° C | 55% | 1020.2 hPa | 0 mm | - | 49 W/m² | - |
| 1777570097 | 17.22° C | 55% | 1020.2 hPa | 0 mm | - | 49 W/m² | - |
| 1777570037 | 17.22° C | 55% | 1020.1 hPa | 0 mm | - | 47 W/m² | - |
| 1777569977 | 17.22° C | 55% | 1020.3 hPa | 0 mm | - | 44 W/m² | - |
| 1777569966 | 17.22° C | 55% | 1020.3 hPa | 0 mm | - | 44 W/m² | - |
| 1777569916 | 17.22° C | 54% | 1020.2 hPa | 0 mm | - | 40 W/m² | - |
| 1777569856 | 17.22° C | 54% | 1020.2 hPa | 0 mm | - | 37 W/m² | - |
| 1777569796 | 17.22° C | 54% | 1020.2 hPa | 0 mm | - | 35 W/m² | - |
| 1777569787 | 17.22° C | 54% | 1020.2 hPa | 0 mm | - | 35 W/m² | - |
| 1777569737 | 17.22° C | 54% | 1020.1 hPa | 0 mm | - | 32 W/m² | - |
| 1777569677 | 17.22° C | 54% | 1020.1 hPa | 0 mm | - | 32 W/m² | - |
| 1777569617 | 17.22° C | 53% | 1020.2 hPa | 0 mm | - | 32 W/m² | - |
| 1777569606 | 17.22° C | 53% | 1020.2 hPa | 0 mm | - | 32 W/m² | - |
| 1777569556 | 17.22° C | 53% | 1020.1 hPa | 0 mm | - | 32 W/m² | - |
* Rain latest hour (hover to see other rain measurements)
** Current wind speed in m/s (hover to see current wind gust speed)